GW3385 Weather Reports


time (UTC)temp
C
wind
direction
speed
KPH
gust
KPH
rain 1hr
cm
rain 24hr
cm
rain mn
cm
humidity
%
barometer
mb
20260906231614 21 18 3.2 12.9 0.53 2.44 2.44 94 1012.3
20260906231056 21 5 4.8 11.3 0.51 2.41 2.41 93 1012.2
20260906230556 21 17 3.2 9.7 0.48 2.39 2.39 93 1012.5
20260906230104 21 345 3.2 9.7 0.51 2.39 2.39 94 1012.7
20260906225555 21 343 0.0 9.7 0.48 2.36 2.36 93 1012.7
20260906225055 21 336 3.2 9.7 0.41 2.29 2.29 93 1012.7
20260906224609 21 9 1.6 8.0 0.38 2.26 2.26 93 1012.9
20260906224053 21 40 3.2 8.0 0.33 2.21 2.21 93 1012.8
20260906223552 21 19 1.6 8.0 0.38 2.21 2.21 93 1012.8
20260906223108 21 15 1.6 6.4 0.41 2.13 2.13 93 1012.9
20260906222555 21 0 1.6 6.4 0.33 2.06 2.06 93 1013.1
20260906222056 21 0 1.6 6.4 0.23 1.96 1.96 93 1013.4
20260906221609 21 322 1.6 11.3 0.18 1.91 1.91 93 1013.3
20260906221056 21 25 4.8 11.3 0.18 1.91 1.91 93 1012.8
20260906220556 21 30 3.2 12.9 0.18 1.91 1.91 93 1012.9
20260906220103 21 11 3.2 12.9 0.15 1.88 1.88 93 1013.0
20260906215555 21 350 4.8 12.9 0.15 1.88 1.88 93 1013.2
20260906215056 21 344 4.8 12.9 0.18 1.88 1.88 93 1013.0
20260906214608 21 331 3.2 12.9 0.18 1.88 1.88 93 1013.2
20260906214056 21 28 4.8 12.9 0.18 1.88 1.88 93 1013.1
20260906213555 21 51 3.2 9.7 0.13 1.83 1.83 93 1013.2
20260906213100 21 0 3.2 8.0 0.03 1.73 1.73 93 1013.7
20260906212555 21 344 3.2 6.4 0.03 1.73 1.73 94 1013.4
20260906212055 21 0 0.0 12.9 0.03 1.73 1.73 94 1013.4
20260906211556 21 43 3.2 12.9 0.03 1.73 1.73 94 1013.1
20260906211055 21 19 4.8 11.3 0.03 1.73 1.73 94 1012.9
20260906210555 21 15 3.2 11.3 0.03 1.73 1.73 94 1013.0
20260906210113 21 0 3.2 12.9 0.03 1.73 1.73 94 1013.0
20260906205557 21 32 1.6 12.9 0.00 1.70 1.70 94 1013.0
20260906205056 21 24 3.2 12.9 0.00 1.70 1.70 94 1012.5
20260906204603 21 9 3.2 8.0 0.00 1.70 1.70 94 1012.9
20260906204059 21 0 1.6 8.0 0.00 1.70 1.70 94 1012.9
20260906203552 21 45 1.6 6.4 0.00 1.70 1.70 94 1012.7
20260906203102 21 58 3.2 6.4 0.00 1.70 1.70 94 1012.7
20260906202555 21 5 1.6 4.8 0.00 1.70 1.70 94 1013.2
20260906202055 21 15 0.0 6.4 0.00 1.70 1.70 94 1013.2
20260906201634 21 54 1.6 6.4 0.00 1.70 1.70 94 1013.3
20260906201055 21 74 1.6 6.4 0.00 1.70 1.70 94 1013.3
20260906200555 21 37 3.2 6.4 0.00 1.70 1.70 94 1013.5
20260906200105 21 0 0.0 4.8 0.00 1.70 1.70 94 1013.6
20260906195554 21 57 0.0 4.8 0.03 1.70 1.70 94 1013.6
20260906195057 21 82 0.0 4.8 0.05 1.70 1.70 94 1013.9
20260906194608 20 83 0.0 6.4 0.08 1.70 1.70 94 1013.8
20260906194054 20 0 0.0 8.0 0.10 1.70 1.70 94 1013.9
20260906193555 20 0 0.0 8.0 0.13 1.70 1.70 94 1013.8
20260906193056 20 360 3.2 6.4 0.15 1.70 1.70 94 1013.7
20260906192551 20 0 1.6 4.8 0.18 1.70 1.70 94 1014.6
20260906192055 20 0 0.0 8.0 0.20 1.70 1.70 94 1014.1
20260906191612 20 0 3.2 8.0 0.20 1.70 1.70 94 1013.8
20260906191056 20 336 1.6 6.4 0.23 1.70 1.70 94 1013.9
20260906190556 20 0 1.6 6.4 0.23 1.70 1.70 94 1014.1
20260906190108 20 0 0.0 0.0 0.23 1.70 1.70 94 1014.3
20260906185558 20 0 0.0 3.2 0.20 1.68 1.68 94 1014.3
20260906185055 20 0 0.0 4.8 0.23 1.65 1.65 94 1014.5
20260906184603 20 335 0.0 6.4 0.23 1.63 1.63 94 1015.0
20260906184055 20 296 0.0 6.4 0.23 1.60 1.60 94 1014.6
20260906183552 20 0 0.0 6.4 0.23 1.57 1.57 94 1014.7
20260906183104 20 300 1.6 6.4 0.23 1.55 1.55 94 1014.7
20260906182559 20 328 1.6 6.4 0.25 1.52 1.52 94 1014.8
20260906182058 20 344 0.0 6.4 0.25 1.47 1.47 94 1014.9
20260906181624 20 351 0.0 6.4 0.30 1.47 1.47 94 1014.9
20260906181055 20 0 1.6 6.4 0.30 1.47 1.47 94 1014.6
20260906180555 20 26 0.0 6.4 0.33 1.47 1.47 94 1014.8
20260906180107 20 0 0.0 6.4 0.33 1.47 1.47 94 1015.1
20260906175557 20 0 0.0 6.4 0.36 1.47 1.47 93 1015.0
20260906175055 20 0 1.6 8.0 0.30 1.42 1.42 93 1014.7
20260906174611 20 5 1.6 8.0 0.33 1.40 1.40 93 1014.9
20260906174054 20 28 1.6 4.8 0.36 1.32 1.32 93 1015.2
20260906173555 20 0 1.6 4.8 0.41 1.32 1.32 93 1015.2
20260906173105 20 0 0.0 3.2 0.46 1.32 1.32 93 1015.2
20260906172556 20 0 0.0 3.2 0.46 1.27 1.27 94 1015.2
20260906172059 19 0 0.0 3.2 0.51 1.24 1.24 93 1015.2
20260906171603 19 0 0.0 0.0 0.51 1.19 1.19 93 1015.1
20260906171056 19 0 0.0 3.2 0.56 1.17 1.17 93 1015.2
20260906170555 19 0 0.0 3.2 0.56 1.14 1.14 93 1015.1
20260906170106 19 351 0.0 3.2 0.58 1.14 1.14 93 1014.7
20260906165557 19 0 0.0 6.4 0.58 1.12 1.12 93 1014.5
20260906165055 18 0 1.6 6.4 0.61 1.12 1.12 92 1014.3
20260906164602 19 340 3.2 6.4 0.56 1.07 1.07 91 1014.0
20260906164056 19 344 0.0 3.2 0.48 0.99 0.99 92 1014.2
20260906163556 19 0 0.0 1.6 0.43 0.94 0.94 92 1014.5
20260906163106 19 0 0.0 4.8 0.36 0.86 0.86 92 1014.4
20260906162556 19 0 0.0 6.4 0.30 0.81 0.81 91 1014.5
20260906162058 19 0 1.6 6.4 0.23 0.74 0.74 91 1014.7
20260906161610 19 184 0.0 0.0 0.18 0.69 0.69 91 1014.7
20260906161055 19 0 0.0 0.0 0.10 0.61 0.61 91 1014.5
20260906160555 19 0 0.0 0.0 0.08 0.58 0.58 91 1014.2
20260906160105 19 0 0.0 1.6 0.05 0.56 0.56 91 1014.2
20260906155555 19 0 0.0 3.2 0.03 0.53 0.53 91 1014.0
20260906155058 19 0 0.0 3.2 0.00 0.51 0.51 91 1013.9
20260906154602 19 121 0.0 1.6 0.00 0.51 0.51 91 1013.6
20260906154052 19 0 0.0 6.4 0.03 0.51 0.51 91 1013.4
20260906153555 18 0 0.0 6.4 0.03 0.51 0.51 91 1013.2
20260906153109 18 331 0.0 6.4 0.03 0.51 0.51 91 1012.9
20260906152557 18 0 0.0 8.0 0.03 0.51 0.51 91 1012.8
20260906152055 18 0 3.2 8.0 0.03 0.51 0.51 91 1012.7
20260906151557 18 348 1.6 9.7 0.03 0.51 0.51 91 1012.7
20260906151055 18 319 1.6 9.7 0.05 0.51 0.51 91 1012.6
20260906150555 18 303 1.6 11.3 0.05 0.51 0.51 90 1012.4
20260906150107 18 332 3.2 11.3 0.05 0.51 0.51 91 1012.5
20260906145555 17 20 3.2 12.9 0.05 0.51 0.51 90 1012.6
20260906145052 17 16 3.2 12.9 0.08 0.51 0.51 90 1012.6
20260906144600 17 9 3.2 14.5 0.05 0.48 0.48 90 1012.5
20260906144055 17 42 6.4 17.7 0.08 0.48 0.48 90 1012.4
20260906143556 17 331 3.2 17.7 0.08 0.48 0.48 90 1012.4
20260906143058 17 24 8.0 19.3 0.10 0.48 0.48 89 1012.4
20260906142555 17 38 4.8 19.3 0.10 0.48 0.48 89 1012.5
20260906142057 17 5 8.0 25.7 0.13 0.48 0.48 89 1012.5
20260906141604 16 31 12.9 25.7 0.13 0.48 0.48 89 1012.6
20260906141055 16 10 11.3 25.7 0.13 0.46 0.46 89 1012.7
20260906140557 16 338 8.0 25.7 0.15 0.46 0.46 89 1012.7
20260906140109 16 360 6.4 24.1 0.15 0.46 0.46 89 1012.4
20260906135556 16 309 6.4 20.9 0.20 0.46 0.46 89 1012.7
20260906135058 16 15 9.7 20.9 0.20 0.43 0.43 88 1012.8
20260906134615 16 66 4.8 17.7 0.20 0.43 0.43 88 1013.1
20260906134056 16 5 6.4 17.7 0.20 0.41 0.41 87 1013.2
20260906133555 16 340 6.4 17.7 0.23 0.41 0.41 86 1012.9
20260906133104 16 322 3.2 11.3 0.23 0.38 0.38 85 1013.1
20260906132557 17 348 3.2 12.9 0.25 0.38 0.38 84 1013.1
20260906132058 17 292 3.2 12.9 0.28 0.36 0.36 84 1013.4
20260906131603 17 0 3.2 12.9 0.33 0.36 0.36 84 1013.0
20260906131056 18 0 3.2 11.3 0.33 0.33 0.33 83 1012.9
20260906130556 18 298 1.6 8.0 0.30 0.30 0.30 83 1012.8
20260906130114 19 19 3.2 8.0 0.30 0.30 0.30 82 1012.3
20260906125556 19 0 3.2 8.0 0.25 0.25 0.25 81 1012.7
20260906125058 20 15 1.6 12.9 0.23 0.23 0.23 79 1013.4
20260906124557 20 273 1.6 12.9 0.23 0.23 0.23 78 1013.4
20260906124056 20 273 4.8 12.9 0.20 0.20 0.20 75 1013.6
20260906123555 21 184 3.2 8.0 0.18 0.18 0.18 72 1013.3
20260906123058 21 175 3.2 8.0 0.13 0.13 0.13 67 1012.7
20260906122555 21 0 0.0 4.8 0.13 0.13 0.13 64 1012.1
20260906122056 22 0 0.0 8.0 0.08 0.08 0.08 63 1012.0
20260906121618 22 152 1.6 8.0 0.03 0.03 0.03 60 1011.9
20260906121057 22 0 4.8 8.0 0.00 0.00 0.00 55 1011.8
20260906120552 22 166 0.0 3.2 0.00 0.00 0.00 55 1011.6
20260906120104 22 0 0.0 0.0 0.00 0.00 0.00 56 1011.3
20260906115555 22 0 0.0 0.0 0.00 0.00 0.00 57 1011.1
20260906115055 22 0 0.0 0.0 0.00 0.00 0.00 56 1011.1
20260906114627 22 0 0.0 0.0 0.00 0.00 0.00 55 1011.1
20260906114055 22 0 0.0 1.6 0.00 0.00 0.00 55 1011.1
20260906113551 22 0 0.0 1.6 0.00 0.00 0.00 56 1011.3
20260906113114 22 0 0.0 1.6 0.00 0.00 0.00 56 1011.2
20260906112555 22 0 0.0 4.8 0.00 0.00 0.00 56 1011.2
20260906112055 22 0 0.0 4.8 0.00 0.00 0.00 55 1011.2
20260906111603 22 352 0.0 3.2 0.00 0.00 0.00 56 1011.2
20260906111055 22 0 0.0 1.6 0.00 0.00 0.00 56 1011.2
20260906110555 22 0 0.0 1.6 0.00 0.00 0.00 55 1011.2
20260906110100 22 0 0.0 0.0 0.00 0.00 0.00 54 1011.3
20260906105556 22 0 0.0 0.0 0.00 0.00 0.00 55 1011.3
20260906105057 22 0 0.0 0.0 0.00 0.00 0.00 54 1011.2
20260906104605 22 0 0.0 0.0 0.00 0.00 0.00 55 1011.2
20260906104056 22 0 0.0 0.0 0.00 0.00 0.00 54 1011.1
20260906103555 22 0 0.0 0.0 0.00 0.00 0.00 54 1011.2
20260906103114 22 0 0.0 1.6 0.00 0.00 0.00 53 1011.2
20260906102557 22 0 0.0 3.2 0.00 0.00 0.00 53 1011.1
20260906102059 22 0 0.0 3.2 0.00 0.00 0.00 53 1011.2
20260906101605 22 0 0.0 1.6 0.00 0.00 0.00 54 1011.2
20260906101055 22 0 0.0 0.0 0.00 0.00 0.00 53 1011.2
20260906100555 22 0 0.0 0.0 0.00 0.00 0.00 53 1011.1
20260906100101 22 0 0.0 0.0 0.00 0.00 0.00 53 1011.2
20260906095556 22 0 0.0 0.0 0.00 0.00 0.00 54 1011.2
20260906095056 22 0 0.0 0.0 0.00 0.00 0.00 53 1011.3
20260906094557 22 0 0.0 0.0 0.00 0.00 0.00 51 1011.3
20260906094055 22 0 0.0 1.6 0.00 0.00 0.00 50 1011.2
20260906093556 22 0 0.0 1.6 0.00 0.00 0.00 51 1011.3
20260906093056 22 0 0.0 3.2 0.00 0.00 0.00 50 1011.2
20260906092555 22 0 0.0 3.2 0.00 0.00 0.00 50 1011.2
20260906092056 22 352 0.0 3.2 0.00 0.00 0.00 49 1011.2
20260906091614 22 0 0.0 4.8 0.00 0.00 0.00 50 1011.2
20260906091055 22 0 0.0 4.8 0.00 0.00 0.00 50 1011.2
20260906090558 22 345 0.0 4.8 0.00 0.00 0.00 50 1011.2
20260906090111 22 360 0.0 4.8 0.00 0.00 0.00 50 1011.3
20260906085554 22 0 1.6 4.8 0.00 0.00 0.00 50 1011.2
20260906085056 22 0 1.6 4.8 0.00 0.00 0.00 50 1011.3
20260906084558 22 0 1.6 8.0 0.00 0.00 0.00 51 1011.4
20260906084055 22 0 1.6 8.0 0.00 0.00 0.00 52 1011.4
20260906083556 22 350 4.8 8.0 0.00 0.00 0.00 52 1011.3
20260906083103 22 348 1.6 6.4 0.00 0.00 0.00 52 1011.4
20260906082555 22 323 1.6 6.4 0.00 0.00 0.00 52 1011.5
20260906082055 22 0 0.0 6.4 0.00 0.00 0.00 52 1011.6
20260906081559 22 360 1.6 6.4 0.00 0.00 0.00 52 1011.6
20260906081056 22 0 0.0 3.2 0.00 0.00 0.00 54 1011.6
20260906080555 22 0 0.0 3.2 0.00 0.00 0.00 54 1011.6
20260906080111 22 0 0.0 3.2 0.00 0.00 0.00 54 1011.6
20260906075555 22 0 0.0 3.2 0.00 0.00 0.00 54 1011.6
20260906075055 22 0 0.0 3.2 0.00 0.00 0.00 55 1011.6
20260906074559 22 0 0.0 3.2 0.00 0.00 0.00 55 1011.6
20260906074054 22 338 0.0 3.2 0.00 0.00 0.00 55 1011.6
20260906073556 22 0 0.0 3.2 0.00 0.00 0.00 55 1011.7
20260906073103 22 352 0.0 3.2 0.00 0.00 0.00 54 1011.6
20260906072556 22 0 0.0 3.2 0.00 0.00 0.00 54 1011.6
20260906072056 21 0 0.0 3.2 0.00 0.00 0.00 54 1011.6
20260906071613 21 0 0.0 3.2 0.00 0.00 0.00 54 1011.6
20260906071055 21 0 0.0 4.8 0.00 0.00 0.00 55 1011.5
20260906070554 21 352 1.6 4.8 0.00 0.00 0.00 55 1011.5
20260906070106 21 352 0.0 4.8 0.00 0.00 0.00 55 1011.5
20260906065557 21 345 1.6 6.4 0.00 0.00 0.00 55 1011.5
20260906065055 21 0 1.6 6.4 0.00 0.00 0.00 55 1011.6
20260906064602 21 342 3.2 6.4 0.00 0.00 0.00 55 1011.4
20260906064057 21 338 0.0 3.2 0.00 0.00 0.00 54 1011.6
20260906063555 21 0 0.0 1.6 0.00 0.00 0.00 54 1011.6
20260906063057 21 0 0.0 1.6 0.00 0.00 0.00 54 1011.6
20260906062559 21 0 0.0 1.6 0.00 0.00 0.00 53 1011.7
20260906062055 21 0 0.0 3.2 0.00 0.00 0.00 52 1011.7
20260906061606 21 0 0.0 3.2 0.00 0.00 0.00 52 1011.8
20260906061055 21 338 0.0 3.2 0.00 0.00 0.00 53 1011.8
20260906060555 21 0 0.0 0.0 0.00 0.00 0.00 52 1011.8
20260906060155 21 0 0.0 0.0 0.00 0.00 0.00 52 1011.8
20260906055555 21 0 0.0 0.0 0.00 0.00 0.00 49 1011.8
20260906055056 21 0 0.0 0.0 0.00 0.00 0.00 49 1011.8
20260906054609 21 0 0.0 1.6 0.00 0.00 0.00 50 1011.8
20260906054056 22 0 0.0 1.6 0.00 0.00 0.00 51 1011.9
20260906053555 22 0 0.0 1.6 0.00 0.00 0.00 51 1011.8
20260906053055 22 0 0.0 1.6 0.00 0.00 0.00 50 1011.9
20260906052556 22 0 0.0 1.6 0.00 0.00 0.00 49 1011.9
20260906052057 22 0 0.0 1.6 0.00 0.00 0.00 49 1012.0
20260906051605 22 0 0.0 1.6 0.00 0.00 0.00 50 1012.0
20260906051055 22 0 0.0 1.6 0.00 0.00 0.00 50 1012.0
20260906050556 22 0 0.0 1.6 0.00 0.00 0.00 49 1012.0
20260906050114 22 0 0.0 4.8 0.00 0.00 0.00 49 1012.0
20260906045555 22 0 0.0 4.8 0.00 0.00 0.00 49 1011.9
20260906045055 22 0 1.6 4.8 0.00 0.00 0.00 49 1011.9
20260906044558 22 340 1.6 4.8 0.00 0.00 0.00 49 1011.9
20260906044057 22 323 0.0 4.8 0.00 0.00 0.00 49 1011.9
20260906043555 22 0 0.0 4.8 0.00 0.00 0.00 48 1012.0
20260906043110 22 0 1.6 4.8 0.00 0.00 0.00 47 1012.0
20260906042556 22 0 0.0 1.6 0.00 0.00 0.00 48 1011.9
20260906042055 22 0 0.0 1.6 0.00 0.00 0.00 47 1012.0
20260906041605 23 26 0.0 1.6 0.00 0.00 0.00 46 1012.0
20260906041054 23 0 0.0 3.2 0.00 0.00 0.00 47 1012.0
20260906040555 23 0 0.0 3.2 0.00 0.00 0.00 48 1011.9
20260906035555 23 0 0.0 3.2 0.00 0.00 0.00 48 1011.8
20260906035056 23 0 0.0 3.2 0.00 0.00 0.00 45 1011.8
20260906034601 23 55 0.0 3.2 0.00 0.00 0.00 45 1011.8
20260906034055 23 0 0.0 0.0 0.00 0.00 0.00 45 1011.8
20260906033555 24 0 0.0 0.0 0.00 0.00 0.00 46 1011.8
20260906033057 24 0 0.0 0.0 0.00 0.00 0.00 45 1011.6
20260906032555 24 0 0.0 0.0 0.00 0.00 0.00 45 1011.6
20260906032056 24 0 0.0 0.0 0.00 0.00 0.00 44 1011.4
20260906031630 24 0 0.0 0.0 0.00 0.00 0.00 42 1011.4
20260906031056 24 0 0.0 3.2 0.00 0.00 0.00 42 1011.4
20260906030556 24 0 0.0 3.2 0.00 0.00 0.00 42 1011.3
20260906030059 24 0 0.0 3.2 0.00 0.00 0.00 41 1011.4
20260906025555 24 0 0.0 8.0 0.00 0.00 0.00 41 1011.4
20260906025056 24 180 1.6 8.0 0.00 0.00 0.00 40 1011.4
20260906024607 24 192 3.2 8.0 0.00 0.00 0.00 41 1011.4
20260906024055 24 186 1.6 9.7 0.00 0.00 0.00 42 1011.5
20260906023556 24 220 1.6 9.7 0.00 0.00 0.00 41 1011.5
20260906023113 25 196 1.6 9.7 0.00 0.00 0.00 42 1011.5
20260906022557 25 190 3.2 9.7 0.00 0.00 0.00 41 1011.4
20260906022056 25 182 3.2 9.7 0.00 0.00 0.00 40 1011.5
20260906021557 25 182 1.6 12.9 0.00 0.00 0.00 39 1011.5
20260906021055 25 302 6.4 14.5 0.00 0.00 0.00 39 1011.5
20260906020555 25 300 8.0 14.5 0.00 0.00 0.00 39 1011.4
20260906020106 25 276 8.0 12.9 0.00 0.00 0.00 41 1011.4
20260906015555 25 267 6.4 12.9 0.00 0.00 0.00 42 1011.4
20260906015055 25 311 3.2 12.9 0.00 0.00 0.00 45 1011.3
20260906014607 25 176 6.4 16.1 0.00 0.00 0.00 44 1011.3
20260906014054 25 247 3.2 16.1 0.00 0.00 0.00 49 1011.3
20260906013555 25 258 4.8 14.5 0.00 0.00 0.00 46 1011.4
20260906013100 25 307 6.4 14.5 0.00 0.00 0.00 49 1011.3
20260906012555 25 271 6.4 14.5 0.00 0.00 0.00 50 1011.4
20260906012056 25 261 4.8 14.5 0.00 0.00 0.00 50 1011.5
20260906011605 25 194 3.2 11.3 0.00 0.00 0.00 51 1011.3
20260906011055 25 254 3.2 17.7 0.00 0.00 0.00 51 1011.3
20260906010555 26 231 6.4 17.7 0.00 0.00 0.00 52 1011.2
20260906005556 26 232 6.4 12.9 0.00 0.00 0.00 48 1011.3
20260906005056 26 167 4.8 12.9 0.00 0.00 0.00 47 1011.2
20260906004608 26 248 3.2 12.9 0.00 0.00 0.00 46 1011.2
20260906004055 26 250 6.4 14.5 0.00 0.00 0.00 48 1011.1
20260906003556 26 189 6.4 16.1 0.00 0.00 0.00 49 1011.2
20260906003101 26 202 4.8 19.3 0.00 0.00 0.00 50 1011.0
20260906002559 26 181 11.3 19.3 0.00 0.00 0.00 49 1011.0
20260906002056 26 199 6.4 16.1 0.00 0.00 0.00 50 1011.0
20260906001559 26 244 8.0 17.7 0.00 0.00 0.00 49 1011.0
20260906001056 27 189 9.7 17.7 0.00 0.00 0.00 47 1011.1
20260906000555 27 223 9.7 17.7 0.00 0.00 0.00 47 1011.1
20260906000110 27 151 6.4 17.7 0.00 0.00 0.00 49 1011.1
20260905235555 27 223 4.8 14.5 0.00 0.00 0.00 49 1011.1
20260905235055 27 183 6.4 14.5 0.00 0.00 0.00 47 1011.2
20260905234602 27 162 4.8 16.1 0.00 0.00 0.00 51 1011.0
20260905234059 27 176 6.4 17.7 0.00 0.00 0.00 48 1011.1
20260905233555 27 270 9.7 17.7 0.00 0.00 0.00 46 1010.9
20260905233105 27 300 9.7 17.7 0.00 0.00 0.00 48 1010.9
20260905232556 27 173 4.8 14.5 0.00 0.00 0.00 46 1011.2
20260905232056 27 279 4.8 16.1 0.00 0.00 0.00 50 1011.1